When you browse on this site, cookies collect data to enhance your experience and personalize the content and advertising you see.
Visit our Privacy Policy to learn more. By continuing to use the site, you agree to this use of cookies and data.
  • In Österreich
  • Länderverzeichnis
  • Für 7 Tage
  • Wassertemperatur
  • Wetterkarte
  • News
  • Widgets
  • user-avatar
    Anmelden

    Stündliche Wetter Rjukan

    Heute, 20 August, Dienstag

    Zeit Temperatur Niederschläge Wind Luftdruck Luftfeuchtigkeit
    00:00 +4°C° 0 mm 2 m/S 667 mmHg 93%
    01:00 +4°C° 0 mm 2 m/S 667 mmHg 95%
    02:00 +4°C° 0 mm 2 m/S 667 mmHg 95%
    03:00 +4°C° 0 mm 2 m/S 667 mmHg 96%
    04:00 +4°C° 0 mm 2 m/S 667 mmHg 96%
    05:00 +5°C° 0 mm 2 m/S 668 mmHg 94%
    06:00 +6°C° 0 mm 2 m/S 668 mmHg 92%
    07:00 +7°C° 0 mm 2 m/S 669 mmHg 90%
    08:00 +8°C° 0 mm 3 m/S 670 mmHg 86%
    09:00 +9°C° 0 mm 3 m/S 670 mmHg 81%
    10:00 +9°C° 0 mm 3 m/S 670 mmHg 77%
    11:00 +10°C° 0.2 mm 4 m/S 671 mmHg 73%
    12:00 +11°C° 0.2 mm 4 m/S 671 mmHg 69%
    13:00 +12°C° 0.2 mm 5 m/S 672 mmHg 66%
    14:00 +12°C° 0.5 mm 5 m/S 672 mmHg 67%
    15:00 +12°C° 0.5 mm 5 m/S 672 mmHg 68%
    16:00 +12°C° 0.5 mm 5 m/S 672 mmHg 68%
    17:00 +11°C° 0.1 mm 4 m/S 672 mmHg 71%
    18:00 +10°C° 0.1 mm 4 m/S 672 mmHg 73%
    19:00 +9°C° 0.1 mm 3 m/S 672 mmHg 76%
    20:00 +8°C° 0 mm 3 m/S 672 mmHg 80%
    21:00 +6°C° 0 mm 2 m/S 672 mmHg 84%
    22:00 +4°C° 0 mm 2 m/S 672 mmHg 88%
    23:00 +4°C° 0 mm 2 m/S 672 mmHg 89%

    Morgen, 21 August, Mittwoch

    Zeit Temperatur Niederschläge Wind Luftdruck Luftfeuchtigkeit
    00:00 +3°C° 0 mm 2 m/S 672 mmHg 89%
    01:00 +3°C° 0 mm 2 m/S 672 mmHg 90%
    02:00 +3°C° 0 mm 2 m/S 672 mmHg 90%
    03:00 +2°C° 0 mm 2 m/S 672 mmHg 91%
    04:00 +2°C° 0 mm 2 m/S 673 mmHg 91%
    05:00 +3°C° 0 mm 2 m/S 673 mmHg 87%
    06:00 +3°C° 0 mm 3 m/S 673 mmHg 83%
    07:00 +4°C° 0 mm 3 m/S 674 mmHg 79%
    08:00 +7°C° 0 mm 3 m/S 674 mmHg 70%
    09:00 +9°C° 0 mm 3 m/S 675 mmHg 62%
    10:00 +10°C° 0 mm 3 m/S 676 mmHg 54%
    11:00 +11°C° 0 mm 3 m/S 676 mmHg 49%
    12:00 +12°C° 0 mm 3 m/S 676 mmHg 45%
    13:00 +13°C° 0 mm 4 m/S 676 mmHg 41%
    14:00 +13°C° 0 mm 4 m/S 676 mmHg 41%
    15:00 +13°C° 0 mm 4 m/S 677 mmHg 41%
    16:00 +13°C° 0 mm 4 m/S 677 mmHg 41%
    17:00 +12°C° 0 mm 3 m/S 676 mmHg 47%
    18:00 +11°C° 0 mm 3 m/S 676 mmHg 53%
    19:00 +10°C° 0 mm 2 m/S 676 mmHg 60%
    20:00 +8°C° 0 mm 2 m/S 676 mmHg 66%
    21:00 +6°C° 0 mm 2 m/S 675 mmHg 72%
    22:00 +5°C° 0 mm 1 m/S 675 mmHg 77%
    23:00 +5°C° 0 mm 1 m/S 675 mmHg 78%

    übermorgen, 22 August, Donnerstag

    Zeit Temperatur Niederschläge Wind Luftdruck Luftfeuchtigkeit
    00:00 +4°C° 0 mm 1 m/S 675 mmHg 79%
    01:00 +4°C° 0 mm 1 m/S 675 mmHg 80%
    02:00 +4°C° 0 mm 1 m/S 675 mmHg 80%
    03:00 +5°C° 0 mm 1 m/S 675 mmHg 80%
    04:00 +5°C° 0 mm 1 m/S 675 mmHg 80%
    05:00 +6°C° 0 mm 1 m/S 675 mmHg 77%
    06:00 +7°C° 0 mm 1 m/S 675 mmHg 73%
    07:00 +7°C° 0 mm 2 m/S 675 mmHg 70%
    08:00 +6°C° 0.4 mm 2 m/S 675 mmHg 78%
    09:00 +6°C° 0.4 mm 2 m/S 674 mmHg 85%
    10:00 +6°C° 0.4 mm 2 m/S 674 mmHg 93%
    11:00 +6°C° 0.6 mm 2 m/S 674 mmHg 94%
    12:00 +7°C° 0.6 mm 2 m/S 674 mmHg 95%
    13:00 +7°C° 0.6 mm 2 m/S 674 mmHg 95%
    14:00 +8°C° 0.5 mm 2 m/S 674 mmHg 94%
    15:00 +8°C° 0.5 mm 2 m/S 674 mmHg 92%
    16:00 +8°C° 0.5 mm 2 m/S 674 mmHg 91%
    17:00 +8°C° 0.1 mm 2 m/S 674 mmHg 90%
    18:00 +8°C° 0.1 mm 2 m/S 674 mmHg 90%
    19:00 +8°C° 0.1 mm 2 m/S 674 mmHg 90%
    20:00 +7°C° 0 mm 2 m/S 674 mmHg 92%
    21:00 +6°C° 0 mm 2 m/S 674 mmHg 94%
    22:00 +5°C° 0 mm 1 m/S 674 mmHg 96%
    23:00 +5°C° 0 mm 1 m/S 674 mmHg 96%

    23 August, Freitag

    Zeit Temperatur Niederschläge Wind Luftdruck Luftfeuchtigkeit
    00:00 +5°C° 0 mm 1 m/S 673 mmHg 96%
    01:00 +4°C° 0 mm 1 m/S 673 mmHg 96%
    02:00 +4°C° 0 mm 1 m/S 673 mmHg 96%
    03:00 +4°C° 0 mm 1 m/S 673 mmHg 96%
    04:00 +4°C° 0 mm 1 m/S 673 mmHg 95%
    05:00 +5°C° 0.2 mm 1 m/S 673 mmHg 95%
    06:00 +5°C° 0.2 mm 1 m/S 673 mmHg 94%
    07:00 +5°C° 0.2 mm 2 m/S 673 mmHg 93%
    08:00 +5°C° 0.6 mm 2 m/S 673 mmHg 94%
    09:00 +5°C° 0.6 mm 2 m/S 673 mmHg 94%
    10:00 +6°C° 0.6 mm 2 m/S 673 mmHg 95%
    11:00 +7°C° 0.2 mm 3 m/S 673 mmHg 93%
    12:00 +7°C° 0.2 mm 4 m/S 673 mmHg 92%
    13:00 +8°C° 0.2 mm 4 m/S 673 mmHg 91%
    14:00 +9°C° 0.1 mm 5 m/S 673 mmHg 86%
    15:00 +10°C° 0.1 mm 6 m/S 674 mmHg 81%
    16:00 +11°C° 0.1 mm 8 m/S 674 mmHg 77%
    17:00 +11°C° 0 mm 7 m/S 674 mmHg 78%
    18:00 +10°C° 0 mm 6 m/S 674 mmHg 80%
    19:00 +9°C° 0 mm 5 m/S 673 mmHg 81%
    20:00 +8°C° 0 mm 4 m/S 673 mmHg 86%
    21:00 +8°C° 0 mm 3 m/S 673 mmHg 90%
    22:00 +5°C° 0 mm 3 m/S 673 mmHg 94%
    23:00 +6°C° 0 mm 2 m/S 674 mmHg 94%

    24 August, Samstag

    Zeit Temperatur Niederschläge Wind Luftdruck Luftfeuchtigkeit
    00:00 +5°C° 0 mm 2 m/S 674 mmHg 94%
    01:00 +5°C° 0 mm 2 m/S 674 mmHg 94%
    02:00 +4°C° 0 mm 2 m/S 674 mmHg 93%
    03:00 +3°C° 0 mm 2 m/S 674 mmHg 92%
    04:00 +3°C° 0 mm 2 m/S 674 mmHg 92%
    05:00 +3°C° 0 mm 3 m/S 675 mmHg 88%
    06:00 +4°C° 0 mm 3 m/S 675 mmHg 84%
    07:00 +5°C° 0 mm 3 m/S 676 mmHg 80%
    08:00 +7°C° 0 mm 3 m/S 677 mmHg 73%
    09:00 +9°C° 0 mm 3 m/S 677 mmHg 65%
    10:00 +11°C° 0 mm 3 m/S 678 mmHg 57%
    11:00 +12°C° 0 mm 3 m/S 679 mmHg 53%
    12:00 +14°C° 0 mm 2 m/S 679 mmHg 49%
    13:00 +15°C° 0 mm 1 m/S 679 mmHg 45%
    14:00 +16°C° 0 mm 1 m/S 679 mmHg 44%
    15:00 +16°C° 0 mm 1 m/S 679 mmHg 43%
    16:00 +15°C° 0 mm 0 m/S 679 mmHg 42%
    17:00 +14°C° 0 mm 0 m/S 679 mmHg 50%
    18:00 +13°C° 0 mm 1 m/S 679 mmHg 57%
    19:00 +12°C° 0 mm 1 m/S 678 mmHg 65%
    20:00 +10°C° 0 mm 1 m/S 678 mmHg 70%
    21:00 +8°C° 0 mm 1 m/S 678 mmHg 74%
    22:00 +5°C° 0 mm 0 m/S 678 mmHg 79%
    23:00 +7°C° 0 mm 1 m/S 678 mmHg 79%

    25 August, Sonntag

    Zeit Temperatur Niederschläge Wind Luftdruck Luftfeuchtigkeit
    00:00 +7°C° 0 mm 1 m/S 678 mmHg 79%
    01:00 +7°C° 0 mm 1 m/S 679 mmHg 79%
    02:00 +6°C° 0 mm 1 m/S 678 mmHg 80%
    03:00 +6°C° 0 mm 1 m/S 678 mmHg 80%
    04:00 +6°C° 0 mm 1 m/S 678 mmHg 81%
    05:00 +7°C° 0 mm 1 m/S 679 mmHg 78%
    06:00 +8°C° 0 mm 1 m/S 679 mmHg 75%
    07:00 +10°C° 0 mm 1 m/S 679 mmHg 72%
    08:00 +11°C° 0 mm 1 m/S 680 mmHg 66%
    09:00 +12°C° 0 mm 2 m/S 680 mmHg 61%
    10:00 +13°C° 0 mm 3 m/S 681 mmHg 55%
    11:00 +13°C° 0 mm 3 m/S 681 mmHg 54%
    12:00 +14°C° 0 mm 3 m/S 681 mmHg 53%
    13:00 +16°C° 0 mm 3 m/S 681 mmHg 52%
    14:00 +16°C° 0 mm 3 m/S 681 mmHg 53%
    15:00 +15°C° 0 mm 4 m/S 680 mmHg 54%
    16:00 +15°C° 0 mm 4 m/S 680 mmHg 55%
    17:00 +14°C° 0 mm 3 m/S 680 mmHg 61%
    18:00 +13°C° 0 mm 3 m/S 679 mmHg 67%
    19:00 +13°C° 0 mm 2 m/S 679 mmHg 73%
    20:00 +10°C° 0 mm 2 m/S 679 mmHg 77%
    21:00 +9°C° 0 mm 2 m/S 678 mmHg 82%
    22:00 +8°C° 0 mm 1 m/S 678 mmHg 86%
    23:00 +8°C° 0 mm 1 m/S 678 mmHg 86%
    Mehr zeigen